Hourly Data Report for September 29, 2017

All times are specified in Local Standard Time (LST). Add 1 hour to adjust for Daylight Saving Time where and when it is observed.

RANKIN INLET A
NUNAVUT

62°48'38.000" N
92°06'53.000" W
32.30 m
2303405
71083
YRT

Download Data

Hourly Data (September 2017)
Hourly Data Report for September 29, 2017
Temp Definition
°C
Dew Point Temp Definition
°C
Rel Hum Definition
%
Wind Dir Definition
10's deg

Wind Spd Definition
km/h
Visibility Definition
km
Stn Press Definition
kPa
Hmdx Definition


Wind Chill Definition


Weather Definition


TIME
00:00 Legend Double Dagger -0.1 -5.2 69 23 13 24.1 102.01   -4 Mainly Clear
01:00 Legend Double Dagger 0.1 -5.5 66 22 21 24.1 101.95     LegendNANA
02:00 Legend Double Dagger 0.5 -4.5 69 21 23 24.1 101.87     LegendNANA
03:00 Legend Double Dagger 0.9 -3.8 71 21 26 24.1 101.76     Mostly Cloudy
04:00 Legend Double Dagger 1.3 -3.1 73 20 27 24.1 101.61     LegendNANA
05:00 Legend Double Dagger 1.6 -2.0 77 20 28 24.1 101.45     LegendNANA
06:00 Legend Double Dagger 2.1 -1.4 78 20 36 24.1 101.23     Cloudy
07:00 Legend Double Dagger 2.0 0.0 86 19 40 16.1 100.99     Snow
08:00 Legend Double Dagger 2.6 0.6 87 19 55 12.9 100.70     Rain,Snow
09:00 Legend Double Dagger 2.8 1.4 91 19 54 6.4 100.43     Rain,Fog
10:00 Legend Double Dagger 3.5 2.7 94 19 50 4.8 100.19     Moderate Rain
11:00 Legend Double Dagger 4.3 3.6 95 21 49 6.4 99.94     Rain,Fog
12:00 Legend Double Dagger 5.0 4.0 93 22 43 16.1 99.74     Rain Showers
13:00 Legend Double Dagger 5.5 4.5 93 23 36 24.1 99.59     LegendNANA
14:00 Legend Double Dagger 6.8 5.5 92 24 28 24.1 99.44     LegendNANA
15:00 Legend Double Dagger 8.3 6.5 89 26 27 24.1 99.37     Mostly Cloudy
16:00 Legend Double Dagger 8.2 6.8 91 28 18 24.1 99.34     LegendNANA
17:00 Legend Double Dagger 8.9 7.0 88 29 29 24.1 99.34     LegendNANA
18:00 Legend Double Dagger 8.5 6.7 88 30 30 24.1 99.36     Mostly Cloudy
19:00 Legend Double Dagger 8.0 6.1 88 30 26 24.1 99.36     LegendNANA
20:00 Legend Double Dagger 7.5 5.9 90 30 27 24.1 99.36     LegendNANA
21:00 Legend Double Dagger 7.5 5.7 88 30 32 24.1 99.39     Cloudy
22:00 Legend Double Dagger 7.5 5.1 85 32 43 24.1 99.42     LegendNANA
23:00 Legend Double Dagger 6.1 5.1 93 33 35 24.1 99.45     LegendNANA

Notes on Data Quality.

Legend

  • E = Estimated
  • M = Missing
  • NA = Not Available
  • ‡ = Partner data that is not subject to review by the National Climate Archives
Date modified: